Location: Newark
(7.0858°N, 171.3717°E)
Time: 02:17:24
(UTC+00:00)

Transit 4A - Pass Details

Date: 30 November 2020
Orbit: 864 x 980 km, 66.8° (Epoch: 20 January)

Event Time Altitude Azimuth Distance (km) Brightness Sun altitude
Rises 06:50:09 0° 331° (NNW) 3,596 11.1 -8.8°
Reaches altitude 10° 06:52:46 10° 326° (NNW) 2,635 10.4 -9.4°
Maximum altitude 06:58:41 52° 252° (WSW) 1,121 8.8 -10.8°
Drops below altitude 10° 07:04:26 10° 176° (S) 2,559 10.4 -12.1°
Sets 07:06:58 0° 171° (S) 3,484 11.1 -12.7°
